Time,TemperatureF,DewpointF,PressureIn,WindDirection,WindDirectionDegrees,WindSpeedMPH,WindSpeedGustMPH,Humidity,HourlyPrecipIn,Conditions,Clouds,dailyrainin,SoftwareType,DateUTC
2013-04-19 00:00:00,54.5,35.7,30.03,NW,313,0.0,0.0,49,0.00,,,0.00,Wunderground v.1.15,2013-04-19 07:00:00,
2013-04-19 00:05:00,54.5,35.7,30.03,NW,313,0.0,0.0,49,0.00,,,0.00,Wunderground v.1.15,2013-04-19 07:05:00,
2013-04-19 00:10:00,54.5,36.2,30.03,NW,313,0.0,0.0,50,0.00,,,0.00,Wunderground v.1.15,2013-04-19 07:10:00,
2013-04-19 00:15:00,54.4,36.1,30.02,NW,313,0.0,0.0,50,0.00,,,0.00,Wunderground v.1.15,2013-04-19 07:15:00,
2013-04-19 00:20:00,54.1,35.9,30.02,NW,313,0.0,0.0,50,0.00,,,0.00,Wunderground v.1.15,2013-04-19 07:20:00,
2013-04-19 00:30:00,54.1,35.9,30.02,NW,313,0.0,0.0,50,0.00,,,0.00,Wunderground v.1.15,2013-04-19 07:30:00,
2013-04-19 00:40:00,53.9,36.2,30.02,NW,313,0.0,0.0,51,0.00,,,0.00,Wunderground v.1.15,2013-04-19 07:40:00,
2013-04-19 00:50:00,53.5,36.3,30.03,NW,313,0.0,0.0,52,0.00,,,0.00,Wunderground v.1.15,2013-04-19 07:50:00,
2013-04-19 00:55:00,53.3,36.6,30.03,NW,313,0.0,1.0,53,0.00,,,0.00,Wunderground v.1.15,2013-04-19 07:55:00,
2013-04-19 01:05:00,53.3,37.1,30.03,ENE,66,1.0,1.0,54,0.00,,,0.00,Wunderground v.1.15,2013-04-19 08:05:00,
2013-04-19 01:15:00,52.9,37.2,30.02,ENE,68,0.0,0.0,55,0.00,,,0.00,Wunderground v.1.15,2013-04-19 08:15:00,
2013-04-19 01:25:00,52.6,37.3,30.02,ENE,66,0.0,0.0,56,0.00,,,0.00,Wunderground v.1.15,2013-04-19 08:25:00,
2013-04-19 01:30:00,52.4,37.2,30.02,ENE,66,0.0,0.0,56,0.00,,,0.00,Wunderground v.1.15,2013-04-19 08:30:00,
2013-04-19 01:40:00,51.8,37.5,30.02,ENE,66,0.0,0.0,58,0.00,,,0.00,Wunderground v.1.15,2013-04-19 08:40:00,
2013-04-19 01:45:00,51.7,37.4,30.02,ENE,66,0.0,0.0,58,0.00,,,0.00,Wunderground v.1.15,2013-04-19 08:45:00,
2013-04-19 01:55:00,51.6,37.7,30.02,ENE,66,0.0,0.0,59,0.00,,,0.00,Wunderground v.1.15,2013-04-19 08:55:00,
2013-04-19 02:00:00,51.4,37.5,30.02,ENE,66,0.0,0.0,59,0.00,,,0.00,Wunderground v.1.15,2013-04-19 09:00:00,
2013-04-19 02:10:00,51.1,37.7,30.01,ENE,66,0.0,1.0,60,0.00,,,0.00,Wunderground v.1.15,2013-04-19 09:10:00,
2013-04-19 02:15:00,51.1,37.7,30.01,ENE,66,0.0,2.0,60,0.00,,,0.00,Wunderground v.1.15,2013-04-19 09:15:00,
2013-04-19 02:25:00,50.8,37.4,30.01,ENE,68,0.0,0.0,60,0.00,,,0.00,Wunderground v.1.15,2013-04-19 09:25:00,
2013-04-19 02:30:00,50.7,37.7,30.01,ENE,66,0.0,0.0,61,0.00,,,0.00,Wunderground v.1.15,2013-04-19 09:30:00,
2013-04-19 02:40:00,50.2,37.7,30.01,ENE,66,0.0,0.0,62,0.00,,,0.00,Wunderground v.1.15,2013-04-19 09:40:00,
2013-04-19 02:55:00,49.9,37.8,30.01,ENE,68,0.0,0.0,63,0.00,,,0.00,Wunderground v.1.15,2013-04-19 09:55:00,
2013-04-19 03:00:00,49.9,37.8,30.01,ENE,66,0.0,0.0,63,0.00,,,0.00,Wunderground v.1.15,2013-04-19 10:00:00,
2013-04-19 03:06:00,49.9,38.2,30.01,ENE,66,0.0,1.0,64,0.00,,,0.00,Wunderground v.1.15,2013-04-19 10:06:00,
2013-04-19 03:10:00,49.8,38.1,30.01,ENE,66,1.0,1.0,64,0.00,,,0.00,Wunderground v.1.15,2013-04-19 10:10:00,
2013-04-19 03:20:00,49.6,37.9,30.01,ENE,66,0.0,1.0,64,0.00,,,0.00,Wunderground v.1.15,2013-04-19 10:20:00,
2013-04-19 03:25:00,49.6,37.9,30.01,ENE,66,0.0,1.0,64,0.00,,,0.00,Wunderground v.1.15,2013-04-19 10:25:00,
2013-04-19 03:35:00,49.5,37.8,30.01,ENE,66,0.0,1.0,64,0.00,,,0.00,Wunderground v.1.15,2013-04-19 10:35:00,
2013-04-19 03:40:00,49.3,37.6,30.01,ENE,68,0.0,1.0,64,0.00,,,0.00,Wunderground v.1.15,2013-04-19 10:40:00,
2013-04-19 03:50:00,49.0,37.7,30.01,ENE,66,0.0,0.0,65,0.00,,,0.00,Wunderground v.1.15,2013-04-19 10:50:00,
2013-04-19 03:55:00,48.9,37.6,30.01,ENE,66,0.0,0.0,65,0.00,,,0.00,Wunderground v.1.15,2013-04-19 10:55:00,
2013-04-19 04:05:00,48.4,37.6,30.01,ENE,66,0.0,0.0,66,0.00,,,0.00,Wunderground v.1.15,2013-04-19 11:05:00,
2013-04-19 04:15:00,48.0,37.6,30.01,ENE,66,0.0,0.0,67,0.00,,,0.00,Wunderground v.1.15,2013-04-19 11:15:00,
2013-04-19 04:20:00,47.9,37.5,30.01,ENE,66,0.0,0.0,67,0.00,,,0.00,Wunderground v.1.15,2013-04-19 11:20:00,
2013-04-19 04:30:00,47.7,37.7,30.01,ENE,66,0.0,0.0,68,0.00,,,0.00,Wunderground v.1.15,2013-04-19 11:30:00,
2013-04-19 04:35:00,47.6,37.6,30.01,ENE,66,0.0,0.0,68,0.00,,,0.00,Wunderground v.1.15,2013-04-19 11:35:00,
2013-04-19 04:45:00,47.6,37.9,30.02,ENE,66,0.0,0.0,69,0.00,,,0.00,Wunderground v.1.15,2013-04-19 11:45:00,
2013-04-19 04:50:00,47.6,37.9,30.02,ENE,66,0.0,0.0,69,0.00,,,0.00,Wunderground v.1.15,2013-04-19 11:50:00,
2013-04-19 05:00:00,47.4,37.7,30.02,ENE,66,0.0,0.0,69,0.00,,,0.00,Wunderground v.1.15,2013-04-19 12:00:00,
2013-04-19 05:10:00,47.3,37.6,30.02,ENE,68,0.0,1.0,69,0.00,,,0.00,Wunderground v.1.15,2013-04-19 12:10:00,
2013-04-19 05:15:00,47.1,37.4,30.02,ENE,66,0.0,1.0,69,0.00,,,0.00,Wunderground v.1.15,2013-04-19 12:15:00,
2013-04-19 05:25:00,47.0,37.4,30.02,ENE,68,0.0,0.0,69,0.00,,,0.00,Wunderground v.1.15,2013-04-19 12:25:00,
2013-04-19 05:30:00,46.8,37.5,30.02,ENE,66,0.0,0.0,70,0.00,,,0.00,Wunderground v.1.15,2013-04-19 12:30:00,
2013-04-19 05:35:00,46.7,37.4,30.01,ENE,66,0.0,0.0,70,0.00,,,0.00,Wunderground v.1.15,2013-04-19 12:35:00,
2013-04-19 05:40:00,46.7,37.4,30.01,ENE,66,0.0,0.0,70,0.00,,,0.00,Wunderground v.1.15,2013-04-19 12:40:00,
2013-04-19 05:51:00,46.5,37.2,30.01,ENE,66,0.0,0.0,70,0.00,,,0.00,Wunderground v.1.15,2013-04-19 12:51:00,
2013-04-19 05:55:00,46.4,37.1,30.01,ENE,68,0.0,0.0,70,0.00,,,0.00,Wunderground v.1.15,2013-04-19 12:55:00,
2013-04-19 06:00:00,46.2,37.0,30.01,ENE,66,0.0,0.0,70,0.00,,,0.00,Wunderground v.1.15,2013-04-19 13:00:00,
2013-04-19 06:10:00,45.9,37.0,30.01,ENE,66,0.0,0.0,71,0.00,,,0.00,Wunderground v.1.15,2013-04-19 13:10:00,
2013-04-19 06:15:00,45.9,37.4,30.01,ENE,66,0.0,0.0,72,0.00,,,0.00,Wunderground v.1.15,2013-04-19 13:15:00,
2013-04-19 06:25:00,45.9,37.4,30.01,ENE,66,0.0,0.0,72,0.00,,,0.00,Wunderground v.1.15,2013-04-19 13:25:00,
2013-04-19 06:30:00,45.8,37.6,30.02,ENE,66,0.0,0.0,73,0.00,,,0.00,Wunderground v.1.15,2013-04-19 13:30:00,
2013-04-19 06:40:00,46.2,37.7,30.02,ENE,66,0.0,0.0,72,0.00,,,0.00,Wunderground v.1.15,2013-04-19 13:40:00,
2013-04-19 06:55:00,46.5,37.6,30.02,ENE,68,0.0,0.0,71,0.00,,,0.00,Wunderground v.1.15,2013-04-19 13:55:00,
2013-04-19 07:00:00,46.8,37.5,30.02,ENE,68,0.0,0.0,70,0.00,,,0.00,Wunderground v.1.15,2013-04-19 14:00:00,
2013-04-19 07:10:00,48.3,37.8,30.03,ENE,66,0.0,0.0,67,0.00,,,0.00,Wunderground v.1.15,2013-04-19 14:10:00,
2013-04-19 07:20:00,50.7,39.4,30.03,ENE,66,0.0,0.0,65,0.00,,,0.00,Wunderground v.1.15,2013-04-19 14:20:00,
2013-04-19 07:25:00,51.7,38.3,30.03,ENE,66,1.0,1.0,60,0.00,,,0.00,Wunderground v.1.15,2013-04-19 14:25:00,
2013-04-19 07:35:00,53.5,36.3,30.04,ENE,66,0.0,1.0,52,0.00,,,0.00,Wunderground v.1.15,2013-04-19 14:35:00,
2013-04-19 07:40:00,54.2,36.5,30.04,ENE,66,0.0,1.0,51,0.00,,,0.00,Wunderground v.1.15,2013-04-19 14:40:00,
2013-04-19 07:50:00,57.1,35.9,30.04,ENE,66,0.0,2.0,45,0.00,,,0.00,Wunderground v.1.15,2013-04-19 14:50:00,
2013-04-19 07:55:00,58.1,35.7,30.04,NNE,18,1.0,2.0,43,0.00,,,0.00,Wunderground v.1.15,2013-04-19 14:55:00,
2013-04-19 08:05:00,60.1,34.4,30.04,NNE,18,1.0,1.0,38,0.00,,,0.00,Wunderground v.1.15,2013-04-19 15:05:00,
2013-04-19 08:15:00,61.2,31.8,30.04,North,4,1.0,2.0,33,0.00,,,0.00,Wunderground v.1.15,2013-04-19 15:15:00,
2013-04-19 08:20:00,62.0,31.8,30.04,North,359,2.0,2.0,32,0.00,,,0.00,Wunderground v.1.15,2013-04-19 15:20:00,
2013-04-19 08:26:00,62.7,30.8,30.04,North,6,2.0,2.0,30,0.00,,,0.00,Wunderground v.1.15,2013-04-19 15:26:00,
2013-04-19 08:40:00,64.5,30.6,30.04,North,354,1.0,3.0,28,0.00,,,0.00,Wunderground v.1.15,2013-04-19 15:40:00,
2013-04-19 08:45:00,64.8,30.9,30.04,NNW,337,2.0,3.0,28,0.00,,,0.00,Wunderground v.1.15,2013-04-19 15:45:00,
2013-04-19 08:51:00,65.4,31.4,30.04,NNW,337,2.0,2.0,28,0.00,,,0.00,Wunderground v.1.15,2013-04-19 15:51:00,
2013-04-19 08:55:00,65.8,31.8,30.04,NNW,337,2.0,3.0,28,0.00,,,0.00,Wunderground v.1.15,2013-04-19 15:55:00,
2013-04-19 09:00:00,66.3,32.2,30.04,NNW,337,2.0,4.0,28,0.00,,,0.00,Wunderground v.1.15,2013-04-19 16:00:00,
2013-04-19 09:10:00,67.1,32.0,30.04,NNW,336,2.0,2.0,27,0.00,,,0.00,Wunderground v.1.15,2013-04-19 16:10:00,
2013-04-19 09:15:00,67.6,32.4,30.04,NW,325,3.0,3.0,27,0.00,,,0.00,Wunderground v.1.15,2013-04-19 16:15:00,
2013-04-19 09:25:00,69.1,31.8,30.04,NNW,332,2.0,2.0,25,0.00,,,0.00,Wunderground v.1.15,2013-04-19 16:25:00,
2013-04-19 09:35:00,70.3,30.7,30.04,NNW,329,2.0,2.0,23,0.00,,,0.00,Wunderground v.1.15,2013-04-19 16:35:00,
2013-04-19 09:45:00,71.8,32.0,30.04,NW,323,2.0,2.0,23,0.00,,,0.00,Wunderground v.1.15,2013-04-19 16:45:00,
2013-04-19 09:50:00,72.5,31.5,30.04,NNW,328,2.0,2.0,22,0.00,,,0.00,Wunderground v.1.15,2013-04-19 16:50:00,
2013-04-19 10:00:00,73.8,30.2,30.04,NNW,328,2.0,2.0,20,0.00,,,0.00,Wunderground v.1.15,2013-04-19 17:00:00,
2013-04-19 10:10:00,74.8,28.4,30.03,NNW,328,1.0,1.0,18,0.00,,,0.00,Wunderground v.1.15,2013-04-19 17:10:00,
2013-04-19 10:15:00,75.3,28.8,30.03,NNW,328,0.0,1.0,18,0.00,,,0.00,Wunderground v.1.15,2013-04-19 17:15:00,
2013-04-19 10:25:00,76.6,28.5,30.03,North,0,2.0,2.0,17,0.00,,,0.00,Wunderground v.1.15,2013-04-19 17:25:00,
2013-04-19 10:30:00,77.1,28.9,30.03,North,0,1.0,2.0,17,0.00,,,0.00,Wunderground v.1.15,2013-04-19 17:30:00,
2013-04-19 10:40:00,77.9,26.5,30.03,West,278,3.0,3.0,15,0.00,,,0.00,Wunderground v.1.15,2013-04-19 17:40:00,
2013-04-19 10:55:00,77.9,26.5,30.02,WNW,288,2.0,2.0,15,0.00,,,0.00,Wunderground v.1.15,2013-04-19 17:55:00,
2013-04-19 11:00:00,78.3,26.8,30.02,NNW,328,2.0,2.0,15,0.00,,,0.00,Wunderground v.1.15,2013-04-19 18:00:00,
2013-04-19 11:05:00,79.0,27.4,30.02,NNW,339,2.0,5.0,15,0.00,,,0.00,Wunderground v.1.15,2013-04-19 18:05:00,
2013-04-19 11:15:00,80.3,26.7,30.01,NNW,339,2.0,2.0,14,0.00,,,0.00,Wunderground v.1.15,2013-04-19 18:15:00,
2013-04-19 11:20:00,80.7,23.3,30.01,North,356,1.0,2.0,12,0.00,,,0.00,Wunderground v.1.15,2013-04-19 18:20:00,
2013-04-19 11:25:00,80.7,23.3,30.01,NE,34,1.0,2.0,12,0.00,,,0.00,Wunderground v.1.15,2013-04-19 18:25:00,
2013-04-19 11:30:00,80.9,25.4,30.01,NW,304,1.0,2.0,13,0.00,,,0.00,Wunderground v.1.15,2013-04-19 18:30:00,
2013-04-19 11:35:00,81.7,24.1,30.01,NW,308,2.0,2.0,12,0.00,,,0.00,Wunderground v.1.15,2013-04-19 18:35:00,
2013-04-19 11:45:00,81.1,36.2,30.00,SSW,193,5.0,5.0,20,0.00,,,0.00,Wunderground v.1.15,2013-04-19 18:45:00,
2013-04-19 11:55:00,79.0,36.9,30.00,SW,229,6.0,6.0,22,0.00,,,0.00,Wunderground v.1.15,2013-04-19 18:55:00,
2013-04-19 12:00:00,79.4,34.8,29.99,SW,233,5.0,6.0,20,0.00,,,0.00,Wunderground v.1.15,2013-04-19 19:00:00,
2013-04-19 12:10:00,80.7,38.3,29.99,SW,216,5.0,5.0,22,0.00,,,0.00,Wunderground v.1.15,2013-04-19 19:10:00,
2013-04-19 12:15:00,80.9,38.5,29.99,SSW,193,5.0,5.0,22,0.00,,,0.00,Wunderground v.1.15,2013-04-19 19:15:00,
2013-04-19 12:21:00,80.5,37.0,29.98,SSW,208,5.0,5.0,21,0.00,,,0.00,Wunderground v.1.15,2013-04-19 19:21:00,
2013-04-19 12:35:00,82.5,41.0,29.97,South,176,4.0,4.0,23,0.00,,,0.00,Wunderground v.1.15,2013-04-19 19:35:00,
2013-04-19 12:40:00,83.0,39.0,29.97,SW,216,3.0,6.0,21,0.00,,,0.00,Wunderground v.1.15,2013-04-19 19:40:00,
2013-04-19 12:50:00,83.0,35.1,29.96,South,184,4.0,4.0,18,0.00,,,0.00,Wunderground v.1.15,2013-04-19 19:50:00,
2013-04-19 13:00:00,82.8,30.4,29.95,SSW,196,5.0,5.0,15,0.00,,,0.00,Wunderground v.1.15,2013-04-19 20:00:00,
2013-04-19 13:05:00,83.2,30.7,29.95,SW,215,5.0,6.0,15,0.00,,,0.00,Wunderground v.1.15,2013-04-19 20:05:00,
2013-04-19 13:10:00,83.2,30.7,29.95,South,185,5.0,5.0,15,0.00,,,0.00,Wunderground v.1.15,2013-04-19 20:10:00,
2013-04-19 13:15:00,82.8,30.4,29.95,SW,217,5.0,5.0,15,0.00,,,0.00,Wunderground v.1.15,2013-04-19 20:15:00,
2013-04-19 13:25:00,82.5,31.8,29.95,SSW,199,4.0,4.0,16,0.00,,,0.00,Wunderground v.1.15,2013-04-19 20:25:00,
2013-04-19 13:30:00,82.5,31.8,29.95,SSW,200,5.0,5.0,16,0.00,,,0.00,Wunderground v.1.15,2013-04-19 20:30:00,
2013-04-19 13:36:00,83.2,30.7,29.94,South,191,5.0,8.0,15,0.00,,,0.00,Wunderground v.1.15,2013-04-19 20:36:00,
2013-04-19 13:40:00,83.8,29.5,29.94,SW,220,5.0,8.0,14,0.00,,,0.00,Wunderground v.1.15,2013-04-19 20:40:00,
2013-04-19 13:50:00,84.4,26.2,29.93,South,188,6.0,6.0,12,0.00,,,0.00,Wunderground v.1.15,2013-04-19 20:50:00,
2013-04-19 14:05:00,83.8,25.7,29.93,SW,217,8.0,8.0,12,0.00,,,0.00,Wunderground v.1.15,2013-04-19 21:05:00,
2013-04-19 14:10:00,84.2,24.0,29.93,WSW,243,7.0,14.0,11,0.00,,,0.00,Wunderground v.1.15,2013-04-19 21:10:00,
2013-04-19 14:20:00,83.2,23.2,29.92,SSW,200,8.0,12.0,11,0.00,,,0.00,Wunderground v.1.15,2013-04-19 21:20:00,
2013-04-19 14:25:00,82.6,24.8,29.92,WSW,237,9.0,12.0,12,0.00,,,0.00,Wunderground v.1.15,2013-04-19 21:25:00,
2013-04-19 14:35:00,83.8,25.7,29.91,SW,226,7.0,9.0,12,0.00,,,0.00,Wunderground v.1.15,2013-04-19 21:35:00,
2013-04-19 14:45:00,83.2,25.3,29.90,SSE,154,9.0,9.0,12,0.00,,,0.00,Wunderground v.1.15,2013-04-19 21:45:00,
2013-04-19 14:50:00,84.0,25.9,29.90,SSW,206,8.0,9.0,12,0.00,,,0.00,Wunderground v.1.15,2013-04-19 21:50:00,
2013-04-19 15:00:00,83.6,25.6,29.89,SW,224,9.0,10.0,12,0.00,,,0.00,Wunderground v.1.15,2013-04-19 22:00:00,
2013-04-19 15:10:00,84.2,28.0,29.89,SW,220,7.0,7.0,13,0.00,,,0.00,Wunderground v.1.15,2013-04-19 22:10:00,
2013-04-19 15:25:00,83.4,27.4,29.88,SW,230,7.0,7.0,13,0.00,,,0.00,Wunderground v.1.15,2013-04-19 22:25:00,
2013-04-19 15:35:00,84.4,26.2,29.88,SW,224,6.0,6.0,12,0.00,,,0.00,Wunderground v.1.15,2013-04-19 22:35:00,
2013-04-19 15:40:00,84.4,24.1,29.88,WSW,251,7.0,7.0,11,0.00,,,0.00,Wunderground v.1.15,2013-04-19 22:40:00,
2013-04-19 15:50:00,83.8,27.7,29.87,West,271,8.0,11.0,13,0.00,,,0.00,Wunderground v.1.15,2013-04-19 22:50:00,
2013-04-19 16:00:00,83.8,27.7,29.87,WNW,287,7.0,7.0,13,0.00,,,0.00,Wunderground v.1.15,2013-04-19 23:00:00,
2013-04-19 16:05:00,83.2,29.0,29.87,NW,304,7.0,7.0,14,0.00,,,0.00,Wunderground v.1.15,2013-04-19 23:05:00,
2013-04-19 16:15:00,82.5,30.2,29.87,West,263,8.0,8.0,15,0.00,,,0.00,Wunderground v.1.15,2013-04-19 23:15:00,
2013-04-19 16:20:00,82.1,29.8,29.87,WNW,299,8.0,8.0,15,0.00,,,0.00,Wunderground v.1.15,2013-04-19 23:20:00,
2013-04-19 16:26:00,80.9,27.2,29.87,NW,319,8.0,10.0,14,0.00,,,0.00,Wunderground v.1.15,2013-04-19 23:26:00,
2013-04-19 16:30:00,80.5,26.9,29.87,NW,318,9.0,10.0,14,0.00,,,0.00,Wunderground v.1.15,2013-04-19 23:30:00,
2013-04-19 16:40:00,79.9,26.4,29.87,NW,309,8.0,11.0,14,0.00,,,0.00,Wunderground v.1.15,2013-04-19 23:40:00,
2013-04-19 16:45:00,79.9,24.6,29.86,West,270,8.0,11.0,13,0.00,,,0.00,Wunderground v.1.15,2013-04-19 23:45:00,
2013-04-19 16:50:00,80.1,24.8,29.86,WNW,302,8.0,9.0,13,0.00,,,0.00,Wunderground v.1.15,2013-04-19 23:50:00,
2013-04-19 16:55:00,79.6,22.5,29.86,West,261,10.0,10.0,12,0.00,,,0.00,Wunderground v.1.15,2013-04-19 23:55:00,
2013-04-19 17:00:00,79.6,24.4,29.87,West,280,10.0,10.0,13,0.00,,,0.00,Wunderground v.1.15,2013-04-20 00:00:00,
2013-04-19 17:05:00,79.2,24.1,29.87,West,260,9.0,10.0,13,0.00,,,0.00,Wunderground v.1.15,2013-04-20 00:05:00,
2013-04-19 17:10:00,78.6,25.4,29.87,WNW,288,10.0,12.0,14,0.00,,,0.00,Wunderground v.1.15,2013-04-20 00:10:00,
2013-04-19 17:15:00,78.3,25.1,29.87,WNW,285,10.0,12.0,14,0.00,,,0.00,Wunderground v.1.15,2013-04-20 00:15:00,
2013-04-19 17:20:00,78.1,26.7,29.87,West,261,10.0,10.0,15,0.00,,,0.00,Wunderground v.1.15,2013-04-20 00:20:00,
2013-04-19 17:25:00,78.1,28.2,29.87,NW,311,9.0,10.0,16,0.00,,,0.00,Wunderground v.1.15,2013-04-20 00:25:00,
2013-04-19 17:50:00,76.1,29.5,29.86,WNW,285,9.0,9.0,18,0.00,,,0.00,Wunderground v.1.15,2013-04-20 00:50:00,
2013-04-19 17:56:00,75.7,29.2,29.86,NW,311,9.0,9.0,18,0.00,,,0.00,Wunderground v.1.15,2013-04-20 00:56:00,
2013-04-19 18:10:00,75.0,28.6,29.86,WNW,296,9.0,9.0,18,0.00,,,0.00,Wunderground v.1.15,2013-04-20 01:10:00,
2013-04-19 18:20:00,74.5,28.2,29.86,West,264,11.0,13.0,18,0.00,,,0.00,Wunderground v.1.15,2013-04-20 01:20:00,
2013-04-19 18:30:00,74.3,29.3,29.85,WNW,284,9.0,10.0,19,0.00,,,0.00,Wunderground v.1.15,2013-04-20 01:30:00,
2013-04-19 18:35:00,74.3,29.3,29.85,WNW,287,8.0,10.0,19,0.00,,,0.00,Wunderground v.1.15,2013-04-20 01:35:00,
2013-04-19 18:45:00,73.8,30.2,29.85,West,281,9.0,12.0,20,0.00,,,0.00,Wunderground v.1.15,2013-04-20 01:45:00,
2013-04-19 18:50:00,73.4,31.1,29.85,West,277,10.0,12.0,21,0.00,,,0.00,Wunderground v.1.15,2013-04-20 01:50:00,
2013-04-19 19:00:00,73.4,29.9,29.84,West,268,6.0,6.0,20,0.00,,,0.00,Wunderground v.1.15,2013-04-20 02:00:00,
2013-04-19 19:05:00,73.4,29.9,29.84,NW,304,6.0,6.0,20,0.00,,,0.00,Wunderground v.1.15,2013-04-20 02:05:00,
2013-04-19 19:10:00,73.2,30.9,29.84,West,275,5.0,7.0,21,0.00,,,0.00,Wunderground v.1.15,2013-04-20 02:10:00,
2013-04-19 19:15:00,73.1,30.8,29.84,WNW,289,4.0,7.0,21,0.00,,,0.00,Wunderground v.1.15,2013-04-20 02:15:00,
2013-04-19 19:21:00,72.7,29.3,29.84,WNW,301,4.0,4.0,20,0.00,,,0.00,Wunderground v.1.15,2013-04-20 02:21:00,
2013-04-19 19:36:00,72.0,31.0,29.85,WNW,292,2.0,2.0,22,0.00,,,0.00,Wunderground v.1.15,2013-04-20 02:36:00,
2013-04-19 19:45:00,71.3,30.5,29.85,WNW,299,1.0,3.0,22,0.00,,,0.00,Wunderground v.1.15,2013-04-20 02:45:00,
2013-04-19 19:50:00,70.8,31.1,29.85,WNW,299,1.0,1.0,23,0.00,,,0.00,Wunderground v.1.15,2013-04-20 02:50:00,
2013-04-19 19:55:00,70.3,32.8,29.85,WNW,299,1.0,1.0,25,0.00,,,0.00,Wunderground v.1.15,2013-04-20 02:55:00,
2013-04-19 20:00:00,69.8,32.4,29.85,WNW,299,0.0,0.0,25,0.00,,,0.00,Wunderground v.1.15,2013-04-20 03:00:00,
2013-04-19 20:10:00,68.4,38.2,29.85,WNW,299,0.0,0.0,33,0.00,,,0.00,Wunderground v.1.15,2013-04-20 03:10:00,
2013-04-19 20:21:00,67.1,39.9,29.85,WNW,299,0.0,1.0,37,0.00,,,0.00,Wunderground v.1.15,2013-04-20 03:21:00,
2013-04-19 20:25:00,66.8,39.7,29.85,North,0,1.0,5.0,37,0.00,,,0.00,Wunderground v.1.15,2013-04-20 03:25:00,
2013-04-19 20:30:00,66.8,38.3,29.85,NNW,340,2.0,5.0,35,0.00,,,0.00,Wunderground v.1.15,2013-04-20 03:30:00,
2013-04-19 20:40:00,66.4,37.9,29.86,NNW,340,0.0,1.0,35,0.00,,,0.00,Wunderground v.1.15,2013-04-20 03:40:00,
2013-04-19 20:50:00,65.6,38.6,29.87,NNW,339,0.0,0.0,37,0.00,,,0.00,Wunderground v.1.15,2013-04-20 03:50:00,
2013-04-19 20:55:00,65.4,38.4,29.87,NNW,339,0.0,1.0,37,0.00,,,0.00,Wunderground v.1.15,2013-04-20 03:55:00,
2013-04-19 21:05:00,64.9,40.0,29.87,NNW,340,1.0,2.0,40,0.00,,,0.00,Wunderground v.1.15,2013-04-20 04:05:00,
2013-04-19 21:15:00,64.3,45.8,29.87,NNW,339,1.0,1.0,51,0.00,,,0.00,Wunderground v.1.15,2013-04-20 04:15:00,
2013-04-19 21:25:00,63.5,48.0,29.87,NNE,20,1.0,2.0,57,0.00,,,0.00,Wunderground v.1.15,2013-04-20 04:25:00,
2013-04-19 21:30:00,63.2,48.6,29.87,NNE,21,1.0,2.0,59,0.00,,,0.00,Wunderground v.1.15,2013-04-20 04:30:00,
2013-04-19 21:45:00,62.4,48.8,29.87,NNE,21,0.0,0.0,61,0.00,,,0.00,Wunderground v.1.15,2013-04-20 04:45:00,
2013-04-19 21:55:00,61.6,48.4,29.87,NNE,21,0.0,0.0,62,0.00,,,0.00,Wunderground v.1.15,2013-04-20 04:55:00,
2013-04-19 22:00:00,61.4,48.3,29.86,NNE,21,0.0,0.0,62,0.00,,,0.00,Wunderground v.1.15,2013-04-20 05:00:00,
2013-04-19 22:05:00,61.1,48.0,29.86,NNE,21,0.0,0.0,62,0.00,,,0.00,Wunderground v.1.15,2013-04-20 05:05:00,
2013-04-19 22:10:00,61.1,48.0,29.86,NNE,21,0.0,0.0,62,0.00,,,0.00,Wunderground v.1.15,2013-04-20 05:10:00,
2013-04-19 22:15:00,60.9,47.4,29.87,NNE,21,0.0,0.0,61,0.00,,,0.00,Wunderground v.1.15,2013-04-20 05:15:00,
2013-04-19 22:20:00,60.9,47.4,29.87,NNE,21,0.0,0.0,61,0.00,,,0.00,Wunderground v.1.15,2013-04-20 05:20:00,
2013-04-19 22:25:00,60.9,47.4,29.87,NNE,21,0.0,1.0,61,0.00,,,0.00,Wunderground v.1.15,2013-04-20 05:25:00,
2013-04-19 22:35:00,60.6,47.5,29.87,NNE,21,0.0,0.0,62,0.00,,,0.00,Wunderground v.1.15,2013-04-20 05:35:00,
2013-04-19 22:45:00,60.3,47.2,29.87,NNE,21,0.0,1.0,62,0.00,,,0.00,Wunderground v.1.15,2013-04-20 05:45:00,
2013-04-19 22:50:00,60.0,47.4,29.87,NNE,21,0.0,1.0,63,0.00,,,0.00,Wunderground v.1.15,2013-04-20 05:50:00,
2013-04-19 23:00:00,59.7,47.9,29.87,WNW,289,0.0,0.0,65,0.00,,,0.00,Wunderground v.1.15,2013-04-20 06:00:00,
2013-04-19 23:10:00,59.4,48.0,29.87,WNW,289,0.0,0.0,66,0.00,,,0.00,Wunderground v.1.15,2013-04-20 06:10:00,
2013-04-19 23:25:00,59.2,46.6,29.87,WNW,289,1.0,2.0,63,0.00,,,0.00,Wunderground v.1.15,2013-04-20 06:25:00,
2013-04-19 23:30:00,59.2,46.6,29.87,WNW,289,1.0,2.0,63,0.00,,,0.00,Wunderground v.1.15,2013-04-20 06:30:00,
2013-04-19 23:40:00,59.2,47.4,29.87,NW,309,1.0,1.0,65,0.00,,,0.00,Wunderground v.1.15,2013-04-20 06:40:00,
2013-04-19 23:45:00,59.0,47.2,29.87,NW,309,1.0,1.0,65,0.00,,,0.00,Wunderground v.1.15,2013-04-20 06:45:00,
2013-04-19 23:50:00,59.0,47.7,29.87,NW,309,0.0,0.0,66,0.00,,,0.00,Wunderground v.1.15,2013-04-20 06:50:00,